[[{"header":{"parameterUnit":"m.s-1","parameterCategory":1,"la1":30.2991,"la2":30.254,"lo1":-89.0895,"lo2":-89.0444,"dy":0.0017,"dx":0.0017,"nx":28,"ny":28,"refTime":"2023-11-15T09:00:00:Z","depth":0,"parameterNumber":2,"parameterNumberName":"U-component_of_WINDS"},"data":[0,0,0,0,0,0,0,0,0,0,0,0,0,0,0,0,0,0,0,0,0,0,0,0,0,0,0,0,0,0,0,0,0,0,0,0,0,0,0,0,0,0,0,0,0,0,0,0,0,0,0,0,0,0,0,0,0,0,-1.8375,-1.8378,0,-1.8712,-1.8716,-1.8719,-1.8839,-1.8838,-1.8837,-1.8835,-1.9186,-1.9196,-1.9207,0,0,0,0,0,0,0,0,0,0,0,0,0,-1.7839,-1.7848,-1.8374,-1.8379,-1.8383,-1.8711,-1.8716,-1.872,-1.8839,-1.8838,-1.8836,-1.8835,-1.9183,-1.9195,-1.9208,0,0,0,0,0,0,0,0,0,0,0,0,0,-1.8113,-1.7851,-1.8374,-1.8482,-1.8495,-1.871,-1.8716,-1.8722,-1.884,-1.8838,-1.8836,-1.8834,-1.9178,-1.9194,-1.9209,-1.9344,0,0,-1.9257,-1.9264,0,0,0,0,0,0,0,0,-1.8098,-1.8133,-1.8462,-1.8475,-1.849,-1.8731,-1.8656,-1.893,-1.884,-1.8709,-1.8835,-1.8833,-1.9037,-1.9064,-1.9131,-1.936,-1.9375,-1.9259,-1.9268,-1.9275,-1.928,0,0,0,0,0,0,0,-1.8079,-1.8119,-1.8508,-1.8466,-1.8483,-1.8515,-1.8552,-1.8708,-1.8879,-1.872,-1.873,-1.8767,-1.9044,-1.9116,-1.914,-1.938,-1.9258,-1.9272,-1.9282,-1.9288,-1.9739,-1.9741,0,0,0,0,0,0,-1.8041,-1.8103,-1.8497,-1.8518,-1.8285,-1.8526,-1.8567,-1.8656,-1.8878,-1.891,-1.8769,-1.8772,-1.909,-1.9122,-1.9153,-1.9327,-1.9275,-1.929,-1.9299,-1.9736,-1.9739,-1.9742,0,0,0,0,0,0,-1.8029,-1.8075,-1.8484,-1.8313,-1.8368,-1.8537,-1.8636,-1.8663,-1.8735,-1.8915,-1.8946,-1.8811,-1.909,-1.9131,-1.9296,-1.9341,-1.9297,-1.9311,-1.9733,-1.9737,-1.9741,-1.9674,0,0,0,0,0,0,-1.8013,-1.807,-1.8122,-1.8313,-1.8376,-1.8619,-1.8638,-1.8671,-1.8762,-1.8769,-1.8962,-1.8992,-1.9091,-1.9271,-1.9311,-1.9362,-1.9323,-1.973,-1.9735,-1.9739,-1.9673,-1.9676,-1.9677,0,0,0,0,0,-1.7993,-1.809,-1.8124,-1.8171,-1.8444,-1.8621,-1.8657,-1.8768,-1.8765,-1.8819,-1.8934,-1.8986,-1.9329,-1.9287,-1.9333,-1.9389,-1.9728,-1.9733,-1.9739,-1.9673,-1.9675,-1.9677,0,0,0,0,0,0,-1.7902,-1.8118,-1.8157,-1.8318,-1.845,-1.8641,-1.8713,-1.8766,-1.8904,-1.8905,-1.9037,-1.908,-1.9235,-1.9328,-1.9278,-1.9532,-1.9532,-1.9547,-1.9465,-1.9469,-1.9471,-1.9447,-1.9336,0,0,0,0,0,-1.7899,-1.8023,-1.8206,-1.8331,-1.8395,-1.8542,-1.8623,-1.8697,-1.8839,-1.8896,-1.9024,-1.9162,-1.9301,-1.939,-1.9528,-1.9687,-1.9732,-1.9748,-1.975,-1.975,-1.9763,-1.9856,-1.9866,-1.9761,-1.976,-1.976,0,0,-1.7898,-1.8031,-1.8102,-1.8316,-1.8427,-1.8554,-1.8588,-1.8721,-1.8818,-1.8918,-1.9081,-1.9178,-1.9342,-1.9504,-1.9582,-1.9587,-1.9801,-1.9758,-1.9757,-1.9769,-1.9863,-1.9872,-1.9881,-1.9764,-1.9764,-1.9763,0,0,-1.796,-1.8072,-1.819,-1.8299,-1.8466,-1.8563,-1.8591,-1.8774,-1.8842,-1.9007,-1.9085,-1.9202,-1.9438,-1.9552,-1.964,-1.9744,-1.9799,-1.9785,-1.9797,-1.9886,-1.9894,-1.9902,-1.9942,-1.9954,-1.9797,-1.9796,-1.9796,0,-1.7938,-1.8131,-1.8243,-1.8373,-1.8466,-1.8559,-1.868,-1.8781,-1.8985,-1.9048,-1.9049,-1.9348,-1.9465,-1.9656,-1.9681,-1.9749,-1.9787,-1.9765,-1.9883,-1.9893,-1.9902,-1.9941,-1.9956,-1.9794,-1.9794,-1.9795,-1.9795,0,-1.8096,-1.8229,-1.8304,-1.8496,-1.8597,-1.8721,-1.8854,-1.8944,-1.9007,-1.9105,-1.9273,-1.9415,-1.9584,-1.9634,-1.9699,-1.9835,-1.9833,-1.9857,-1.986,-1.9908,-1.9947,-1.9963,-1.979,-1.9791,-1.9792,-1.9793,0,0,-1.8112,-1.8364,-1.839,-1.8479,-1.8669,-1.8775,-1.8904,-1.9067,-1.9142,-1.9279,-1.9392,-1.9589,-1.9613,-1.9713,-1.9791,-1.9869,-1.9945,-1.9885,-1.989,-1.9893,-2.0107,-2.0089,-2.0104,-1.998,-1.9984,-1.9986,-2.0094,0,-1.8201,-1.8434,-1.8539,-1.8726,-1.8851,-1.8941,-1.9053,-1.9183,-1.9277,-1.9399,-1.9503,-1.9642,-1.9661,-1.9722,-1.9803,-1.9918,-1.999,-1.9912,-2.009,-2.0095,-2.0048,-2.0125,-2.0107,-2.0201,-2.011,-2.0112,-2.0114,0,-1.8337,-1.8472,-1.8671,-1.8846,-1.8903,-1.9002,-1.9161,-1.9275,-1.9424,-1.9487,-1.9598,-1.9673,-1.9814,-1.9804,-2.0002,-1.9946,-2.0025,-2.0093,-2.0099,-2.0122,-2.0109,-2.0152,-2.0234,-2.0249,-2.0139,-2.0137,-2.0135,0,-1.8331,-1.8563,-1.8713,-1.8786,-1.8994,-1.9062,-1.9152,-1.9299,-1.9391,-1.953,-1.9591,-1.9744,-1.9829,-1.9948,-2.0063,-2.0045,-2.025,-2.025,-2.0309,-2.0306,-2.035,-2.0346,-2.0448,-2.0396,-2.0396,-2.0395,-2.0395,0,-1.8421,-1.854,-1.8713,-1.8805,-1.8941,-1.906,-1.9192,-1.9289,-1.9419,-1.9534,-1.962,-1.9726,-1.987,-1.9994,-2.0085,-2.0236,-2.0273,-2.033,-2.0353,-2.0324,-2.0317,-2.0379,-2.0377,-2.0399,-2.0399,-2.0398,-2.0397,0,-1.8439,-1.8559,-1.8728,-1.8911,-1.896,-1.9052,-1.9209,-1.9303,-1.94,-1.9544,-1.9584,-1.9738,-1.9889,-2.0014,-2.0213,-2.0274,-2.0432,-2.0457,-2.038,-2.0393,-2.0446,-2.044,-2.0594,-2.0621,-2.0547,-2.0548,-2.0548,0,-1.849,-1.8583,-1.8775,-1.8856,-1.8945,-1.9075,-1.9169,-1.929,-1.9384,-1.9561,-1.9634,-1.9791,-1.9923,-2.016,-2.0291,-2.0443,-2.0475,-2.0518,-2.0499,-2.0467,-2.0479,-2.0473,-2.0484,-2.0521,-2.0521,-2.0521,-2.0521,0,-1.8568,-1.8623,-1.8753,-1.8904,-1.9013,-1.9138,-1.9266,-1.9329,-1.9474,-1.9575,-1.973,-1.9831,-2.0033,-2.0189,-2.0355,-2.0451,-2.0511,-2.0525,-2.0548,-2.052,-2.0473,-2.0501,-2.0387,-2.0522,-2.0522,-2.0522,-2.0522,-2.0522,-1.8606,-1.8693,-1.8842,-1.8985,-1.9093,-1.921,-1.9308,-1.9416,-1.9546,-1.9719,-1.9783,-1.9941,-2.009,-2.0319,-2.0415,-2.0542,-2.055,-2.0581,-2.059,-2.0597,-2.0593,-2.0449,-2.0573,-2.0573,-2.0573,-2.0573,-2.0574,0,-1.8691,-1.879,-1.892,-1.9095,-1.9208,-1.9251,-1.9395,-1.9487,-1.9625,-1.9757,-1.9885,-2.0063,-2.0214,-2.0355,-2.0514,-2.0589,-2.0621,-2.0627,-2.0624,-2.0645,-2.0577,-2.0543,-2.0598,-2.0598,-2.0598,-2.0598,-2.0598,-2.0598,-1.8748,-1.8898,-1.897,-1.9176,-1.9276,-1.943,-1.9509,-1.9618,-1.9725,-1.9919,-2.0044,-2.0134,-2.0272,-2.0441,-2.0582,-2.062,-2.0676,-2.0675,-2.072,-2.0654,-2.065,-2.0646,-2.0615,-2.0685,-2.0685,-2.0779,-2.078,-2.078]},{"header":{"parameterUnit":"m.s-1","parameterCategory":1,"la1":30.2991,"la2":30.254,"lo1":-89.0895,"lo2":-89.0444,"dy":0.0017,"dx":0.0017,"nx":28,"ny":28,"refTime":"2023-11-15T09:00:00:Z","depth":0,"parameterNumber":3,"parameterNumberName":"V-component_of_WINDS"},"data":[0,0,0,0,0,0,0,0,0,0,0,0,0,0,0,0,0,0,0,0,0,0,0,0,0,0,0,0,0,0,0,0,0,0,0,0,0,0,0,0,0,0,0,0,0,0,0,0,0,0,0,0,0,0,0,0,0,0,-7.4295,-7.4296,0,-7.4398,-7.4399,-7.44,-7.432,-7.4316,-7.4313,-7.4309,-7.4408,-7.4413,-7.4419,0,0,0,0,0,0,0,0,0,0,0,0,0,-7.4023,-7.4028,-7.4295,-7.4296,-7.4298,-7.4398,-7.4399,-7.44,-7.432,-7.4316,-7.4312,-7.4308,-7.4406,-7.4413,-7.442,0,0,0,0,0,0,0,0,0,0,0,0,0,-7.4135,-7.403,-7.4295,-7.427,-7.4269,-7.4397,-7.4399,-7.4401,-7.4321,-7.4316,-7.4311,-7.4306,-7.4404,-7.4412,-7.4421,-7.4577,0,0,-7.4447,-7.4451,0,0,0,0,0,0,0,0,-7.4129,-7.4145,-7.4272,-7.4272,-7.4271,-7.4341,-7.4339,-7.446,-7.4322,-7.4301,-7.4309,-7.4303,-7.4389,-7.4399,-7.4429,-7.4582,-7.4586,-7.4448,-7.4453,-7.4457,-7.446,0,0,0,0,0,0,0,-7.4121,-7.414,-7.4335,-7.4274,-7.4273,-7.4251,-7.4262,-7.4362,-7.4372,-7.4302,-7.4297,-7.431,-7.4388,-7.4421,-7.4431,-7.4588,-7.4448,-7.4456,-7.4461,-7.4464,-7.4875,-7.488,0,0,0,0,0,0,-7.4117,-7.4134,-7.4332,-7.4338,-7.4186,-7.426,-7.4272,-7.4323,-7.4371,-7.4374,-7.4315,-7.4306,-7.4409,-7.4421,-7.4434,-7.4622,-7.4457,-7.4465,-7.447,-7.4869,-7.4876,-7.4882,0,0,0,0,0,0,-7.4111,-7.4135,-7.4328,-7.4235,-7.4258,-7.4271,-7.4329,-7.4328,-7.4361,-7.4381,-7.4381,-7.4347,-7.4405,-7.4422,-7.4543,-7.4624,-7.4469,-7.4477,-7.4863,-7.4871,-7.4879,-7.4998,0,0,0,0,0,0,-7.4104,-7.4134,-7.4195,-7.4237,-7.4263,-7.4438,-7.4334,-7.4334,-7.4377,-7.4367,-7.4411,-7.4413,-7.4402,-7.4531,-7.4552,-7.4633,-7.4484,-7.4855,-7.4866,-7.4877,-7.4987,-7.501,-7.5029,0,0,0,0,0,-7.4094,-7.4222,-7.4198,-7.4223,-7.434,-7.4443,-7.4457,-7.4444,-7.4384,-7.4445,-7.4457,-7.4412,-7.4612,-7.4544,-7.4567,-7.4652,-7.485,-7.4863,-7.4876,-7.4978,-7.5006,-7.5029,0,0,0,0,0,0,-7.4187,-7.4227,-7.4201,-7.4347,-7.4393,-7.4429,-7.4505,-7.4473,-7.4534,-7.4522,-7.45,-7.4511,-7.4639,-7.4657,-7.4581,-7.4807,-7.4721,-7.4739,-7.4791,-7.4817,-7.4838,-7.4831,-7.4491,0,0,0,0,0,-7.4225,-7.4307,-7.4336,-7.4462,-7.4487,-7.4493,-7.4536,-7.4522,-7.4567,-7.4585,-7.4606,-7.465,-7.4722,-7.477,-7.4838,-7.4989,-7.4997,-7.5059,-7.508,-7.5097,-7.5113,-7.5196,-7.5224,-7.4924,-7.4924,-7.4924,0,0,-7.4303,-7.4335,-7.4388,-7.4482,-7.4515,-7.4599,-7.4509,-7.4601,-7.4662,-7.4598,-7.4716,-7.4732,-7.4779,-7.4917,-7.4978,-7.4936,-7.5198,-7.5113,-7.5127,-7.5134,-7.5212,-7.524,-7.5265,-7.4933,-7.4931,-7.493,0,0,-7.4489,-7.4521,-7.4631,-7.4667,-7.4719,-7.4722,-7.4749,-7.4791,-7.48,-7.4918,-7.4872,-7.4943,-7.5068,-7.5104,-7.5139,-7.5339,-7.53,-7.5361,-7.5471,-7.5552,-7.5576,-7.5596,-7.5669,-7.5695,-7.5377,-7.5377,-7.5377,0,-7.4579,-7.4706,-7.469,-7.4787,-7.483,-7.4778,-7.4888,-7.4922,-7.4993,-7.5023,-7.4975,-7.5132,-7.516,-7.5306,-7.5355,-7.5384,-7.5413,-7.5357,-7.5574,-7.5594,-7.5614,-7.5683,-7.571,-7.5384,-7.5384,-7.5383,-7.5382,0,-7.4814,-7.4903,-7.4984,-7.5058,-7.5109,-7.5212,-7.5211,-7.5264,-7.5246,-7.5253,-7.5373,-7.5405,-7.5479,-7.5512,-7.5493,-7.5655,-7.5628,-7.5577,-7.5491,-7.565,-7.5714,-7.5741,-7.5395,-7.5392,-7.539,-7.5388,0,0,-7.5062,-7.5127,-7.5157,-7.5191,-7.5245,-7.5312,-7.5411,-7.5486,-7.5533,-7.5583,-7.5666,-7.5774,-7.5728,-7.5767,-7.5752,-7.5822,-7.5981,-7.5763,-7.5764,-7.5804,-7.6163,-7.6202,-7.6233,-7.5954,-7.5959,-7.5963,-7.6159,0,-7.5252,-7.5429,-7.5419,-7.5584,-7.5666,-7.5618,-7.5704,-7.5746,-7.5756,-7.5825,-7.5833,-7.5911,-7.5844,-7.5868,-7.5935,-7.5947,-7.6053,-7.5933,-7.6031,-7.6035,-7.6023,-7.6266,-7.6308,-7.6492,-7.6184,-7.6188,-7.6192,0,-7.5497,-7.556,-7.5735,-7.5779,-7.5812,-7.5891,-7.5959,-7.6026,-7.6072,-7.6074,-7.6119,-7.6092,-7.6191,-7.6101,-7.6237,-7.6156,-7.6195,-7.6207,-7.6213,-7.6223,-7.6124,-7.6285,-7.655,-7.6578,-7.6231,-7.6228,-7.6225,0,-7.5663,-7.579,-7.5912,-7.5941,-7.5995,-7.6052,-7.6076,-7.6117,-7.6163,-7.6221,-7.6251,-7.6319,-7.6356,-7.6409,-7.6401,-7.6336,-7.654,-7.6449,-7.6543,-7.6544,-7.659,-7.6588,-7.6867,-7.6612,-7.6612,-7.6611,-7.6611,0,-7.5878,-7.5987,-7.5988,-7.6063,-7.6183,-7.6169,-7.6288,-7.6305,-7.6342,-7.6418,-7.6379,-7.6451,-7.6434,-7.6505,-7.6499,-7.6613,-7.6629,-7.6633,-7.6631,-7.6638,-7.6638,-7.6665,-7.6653,-7.6619,-7.6617,-7.6616,-7.6614,0,-7.6084,-7.6088,-7.6218,-7.6259,-7.6272,-7.6359,-7.6393,-7.6463,-7.6469,-7.6566,-7.6588,-7.6597,-7.6679,-7.6675,-7.6766,-7.6762,-7.6904,-7.6885,-7.689,-7.6886,-7.6982,-7.6974,-7.729,-7.7331,-7.7048,-7.7051,-7.7053,0,-7.6221,-7.6305,-7.6355,-7.6405,-7.6434,-7.6514,-7.6562,-7.655,-7.6601,-7.666,-7.6723,-7.6801,-7.6864,-7.6996,-7.701,-7.7079,-7.7063,-7.7169,-7.7073,-7.7079,-7.7067,-7.7063,-7.7072,-7.7188,-7.7191,-7.7194,-7.7196,0,-7.6465,-7.6464,-7.6536,-7.6609,-7.6668,-7.6724,-7.6776,-7.6818,-7.6811,-7.687,-7.6955,-7.7003,-7.7098,-7.7176,-7.7243,-7.7265,-7.7231,-7.7226,-7.7252,-7.7262,-7.7262,-7.7265,-7.6943,-7.7219,-7.7217,-7.7215,-7.7214,-7.7213,-7.6643,-7.6715,-7.6763,-7.6845,-7.6883,-7.6932,-7.7001,-7.7017,-7.7088,-7.7167,-7.7154,-7.7249,-7.7292,-7.7379,-7.7408,-7.748,-7.7443,-7.748,-7.7489,-7.7499,-7.7511,-7.7249,-7.7492,-7.7491,-7.7491,-7.749,-7.749,0,-7.6887,-7.6915,-7.6991,-7.7066,-7.713,-7.7093,-7.7148,-7.7203,-7.7288,-7.7333,-7.7396,-7.7493,-7.7569,-7.7589,-7.7662,-7.7716,-7.7702,-7.7736,-7.7732,-7.7738,-7.754,-7.7511,-7.7746,-7.7746,-7.7746,-7.7746,-7.7746,-7.7746,-7.7021,-7.7143,-7.7148,-7.7287,-7.7314,-7.741,-7.7445,-7.7489,-7.7525,-7.7637,-7.7701,-7.7714,-7.7749,-7.7824,-7.7892,-7.7895,-7.7925,-7.7966,-7.7963,-7.7778,-7.7752,-7.7728,-7.7701,-7.7972,-7.7972,-7.8156,-7.8158,-7.8159]}]]